7 * 24
多渠道服务支持
STARLINK-1368是美国SpaceX公司星链星座中的一颗低轨通信卫星,于2020年4月22日发射升空,属于星链项目早期部署的卫星之一,运行在近地轨道。作为全球规模最大卫星互联网星座组成部分,它承担着为全球提供高速低延迟互联网接入的任务,尤其助力偏远地区网络覆盖,也可服务应急通信与特定领域应用,其部署推动了卫星互联网发展,但也引发太空拥堵等争议。
美国
(US)
| 数据来源 | 国际轨道数据 |
| 星历时间: | 2026-09-11T12:07:57+0800 8小时前 查看轨道信息 |
| 半长轴: | 6806.66km |
| 偏心率: | 0.0003181 |
| 轨道倾角: | 53.153° |
| 近地点辐角 | 45.867° |
| 升交点赤经 | 309.923° |
| 平近点角 | 314.260° |
| 近地点: | 426.357km |
| 远地点: | 430.689km |
| 周期: | 93.145分钟 |
| 每日圈数: | 15.459723 |